Location: Unspecified
(0.0000°N, 0.0000°E)
Time: 11:52:25
(UTC+00:00)

Hubble Space Telescope - Pass Details

Date: 27 May 2017
Orbit: 538 x 542 km, 28.5° (Epoch: 22 August)

Event Time Altitude Azimuth Distance (km) Brightness Sun altitude
Exits shadow 04:37:34 - 319° (NW) 1,859 3.3 -18.5°
Reaches altitude 10° 04:37:46 10° 320° (NW) 1,785 3.2 -18.4°
Maximum altitude 04:41:40 40° 30° (NNE) 798 2.0 -17.5°
Drops below altitude 10° 04:45:34 10° 100° (E) 1,787 4.3 -16.6°
Sets 04:47:55 0° 108° (ESE) 2,679 5.2 -16.1°
